Time,TemperatureF,DewpointF,PressureIn,WindDirection,WindDirectionDegrees,WindSpeedMPH,WindSpeedGustMPH,Humidity,HourlyPrecipIn,Conditions,Clouds,dailyrainin,SoftwareType,DateUTC
2016-02-08 00:03:00,38.0,31.0,-100.00,North,-9999,-999.9,-999.0,77,-99.99,,,-99.99,,2016-02-08 08:03:00,
2016-02-08 00:12:00,36.0,30.0,-100.00,North,-9999,-999.9,-999.0,79,-99.99,,,-99.99,,2016-02-08 08:12:00,
2016-02-08 00:35:00,36.0,30.0,-100.00,North,-9999,-999.9,1.0,80,-99.99,,,-99.99,,2016-02-08 08:35:00,
2016-02-08 00:43:00,36.0,31.0,-100.00,North,-9999,-999.9,1.0,82,-99.99,,,-99.99,,2016-02-08 08:43:00,
2016-02-08 00:53:00,35.0,30.0,-100.00,North,-9999,-999.9,-999.0,82,-99.99,,,-99.99,,2016-02-08 08:53:00,
2016-02-08 01:03:00,35.0,30.0,-100.00,North,-9999,-999.9,1.0,84,-99.99,,,-99.99,,2016-02-08 09:03:00,
2016-02-08 01:13:00,35.0,30.0,-100.00,North,-9999,-999.9,1.0,84,-99.99,,,-99.99,,2016-02-08 09:13:00,
2016-02-08 01:33:00,35.0,30.0,-100.00,South,175,1.0,4.0,84,-99.99,,,-99.99,,2016-02-08 09:33:00,
2016-02-08 01:44:00,35.0,30.0,-100.00,North,-9999,-999.9,3.0,82,-99.99,,,-99.99,,2016-02-08 09:44:00,
2016-02-08 02:03:00,33.0,29.0,-100.00,North,-9999,-999.9,3.0,85,-99.99,,,-99.99,,2016-02-08 10:03:00,
2016-02-08 02:13:00,34.0,30.0,-100.00,North,-9999,-999.9,3.0,84,-99.99,,,-99.99,,2016-02-08 10:13:00,
2016-02-08 02:36:00,33.0,29.0,-100.00,North,-9999,-999.9,2.0,86,-99.99,,,-99.99,,2016-02-08 10:36:00,
2016-02-08 02:43:00,33.0,29.0,-100.00,North,-9999,-999.9,2.0,86,-99.99,,,-99.99,,2016-02-08 10:43:00,
2016-02-08 03:03:00,33.0,29.0,-100.00,North,-9999,-999.9,-999.0,86,-99.99,,,-99.99,,2016-02-08 11:03:00,
2016-02-08 03:12:00,33.0,29.0,-100.00,North,-9999,-999.9,-999.0,87,-99.99,,,-99.99,,2016-02-08 11:12:00,
2016-02-08 03:33:00,33.0,29.0,-100.00,NNW,337,1.0,3.0,87,-99.99,,,-99.99,,2016-02-08 11:33:00,
2016-02-08 03:43:00,33.0,30.0,-100.00,North,-9999,-999.9,2.0,87,-99.99,,,-99.99,,2016-02-08 11:43:00,
2016-02-08 03:54:00,33.0,29.0,-100.00,NW,313,1.0,-999.0,87,-99.99,,,-99.99,,2016-02-08 11:54:00,
2016-02-08 04:13:00,34.0,30.0,-100.00,West,271,1.0,4.0,85,-99.99,,,-99.99,,2016-02-08 12:13:00,
2016-02-08 04:34:00,33.0,29.0,-100.00,North,-9999,-999.9,-999.0,86,-99.99,,,-99.99,,2016-02-08 12:34:00,
2016-02-08 04:44:00,34.0,30.0,-100.00,North,-9999,-999.9,-999.0,85,-99.99,,,-99.99,,2016-02-08 12:44:00,
2016-02-08 05:03:00,34.0,30.0,-100.00,North,-9999,-999.9,3.0,84,-99.99,,,-99.99,,2016-02-08 13:03:00,
2016-02-08 05:13:00,33.0,29.0,-100.00,North,-9999,-999.9,-999.0,85,-99.99,,,-99.99,,2016-02-08 13:13:00,
2016-02-08 05:43:00,32.0,28.0,-100.00,North,-9999,-999.9,-999.0,85,-99.99,,,-99.99,,2016-02-08 13:43:00,
2016-02-08 05:54:00,32.0,28.0,-100.00,SW,224,2.0,6.0,86,-99.99,,,-99.99,,2016-02-08 13:54:00,
2016-02-08 06:03:00,32.0,29.0,-100.00,SW,217,2.0,5.0,86,-99.99,,,-99.99,,2016-02-08 14:03:00,
2016-02-08 06:13:00,32.0,28.0,-100.00,SW,227,1.0,5.0,86,-99.99,,,-99.99,,2016-02-08 14:13:00,
2016-02-08 06:33:00,33.0,29.0,-100.00,SW,215,2.0,4.0,87,-99.99,,,-99.99,,2016-02-08 14:33:00,
2016-02-08 06:44:00,35.0,31.0,-100.00,North,-9999,-999.9,1.0,85,-99.99,,,-99.99,,2016-02-08 14:44:00,
2016-02-08 06:54:00,33.0,28.0,-100.00,North,-9999,-999.9,-999.0,83,-99.99,,,-99.99,,2016-02-08 14:54:00,
2016-02-08 07:04:00,32.0,28.0,-100.00,SE,144,1.0,4.0,85,-99.99,,,-99.99,,2016-02-08 15:04:00,
2016-02-08 07:13:00,31.0,27.0,-100.00,North,-9999,-999.9,5.0,85,-99.99,,,-99.99,,2016-02-08 15:13:00,
2016-02-08 07:34:00,32.0,28.0,-100.00,SSE,152,1.0,5.0,85,-99.99,,,-99.99,,2016-02-08 15:34:00,
2016-02-08 07:44:00,32.0,28.0,-100.00,SSE,165,2.0,6.0,85,-99.99,,,-99.99,,2016-02-08 15:44:00,
2016-02-08 07:55:00,34.0,29.0,-100.00,South,172,1.0,4.0,83,-99.99,,,-99.99,,2016-02-08 15:55:00,
2016-02-08 08:07:00,35.0,30.0,-100.00,North,-9999,-999.9,2.0,79,-99.99,,,-99.99,,2016-02-08 16:07:00,
2016-02-08 08:13:00,36.0,30.0,-100.00,North,-9999,-999.9,-999.0,78,-99.99,,,-99.99,,2016-02-08 16:13:00,
2016-02-08 08:34:00,36.0,29.0,-100.00,SE,127,2.0,6.0,75,-99.99,,,-99.99,,2016-02-08 16:34:00,
2016-02-08 08:44:00,37.0,29.0,-100.00,SE,143,3.0,7.0,73,-99.99,,,-99.99,,2016-02-08 16:44:00,
2016-02-08 08:55:00,37.0,29.0,-100.00,SE,143,3.0,6.0,73,-99.99,,,-99.99,,2016-02-08 16:55:00,
2016-02-08 09:44:00,39.0,30.0,-100.00,North,-9999,-999.9,3.0,70,-99.99,,,-99.99,,2016-02-08 17:44:00,
2016-02-08 10:05:00,42.0,32.0,-100.00,North,-9999,-999.9,-999.0,66,-99.99,,,-99.99,,2016-02-08 18:05:00,
2016-02-08 10:34:00,43.0,31.0,-100.00,North,-9999,-999.9,1.0,62,-99.99,,,-99.99,,2016-02-08 18:34:00,
2016-02-08 10:54:00,47.0,32.0,-100.00,ENE,68,2.0,8.0,57,-99.99,,,-99.99,,2016-02-08 18:54:00,
2016-02-08 11:04:00,47.0,32.0,-100.00,SE,138,3.0,8.0,57,-99.99,,,-99.99,,2016-02-08 19:04:00,
2016-02-08 11:24:00,49.0,32.0,-100.00,SE,140,4.0,10.0,53,-99.99,,,-99.99,,2016-02-08 19:24:00,
2016-02-08 11:34:00,48.0,32.0,-100.00,ESE,103,3.0,9.0,54,-99.99,,,-99.99,,2016-02-08 19:34:00,
2016-02-08 11:44:00,49.0,32.0,-100.00,ESE,104,2.0,8.0,50,-99.99,,,-99.99,,2016-02-08 19:44:00,
2016-02-08 11:54:00,49.0,32.0,-100.00,SE,141,3.0,8.0,52,-99.99,,,-99.99,,2016-02-08 19:54:00,
2016-02-08 12:04:00,49.0,32.0,-100.00,ESE,120,3.0,7.0,52,-99.99,,,-99.99,,2016-02-08 20:04:00,
2016-02-08 12:13:00,49.0,32.0,-100.00,NE,48,1.0,6.0,52,-99.99,,,-99.99,,2016-02-08 20:13:00,
2016-02-08 12:55:00,54.0,33.0,-100.00,ESE,114,3.0,7.0,44,-99.99,,,-99.99,,2016-02-08 20:55:00,
2016-02-08 13:03:00,53.0,32.0,-100.00,ENE,62,3.0,7.0,45,-99.99,,,-99.99,,2016-02-08 21:03:00,
2016-02-08 13:24:00,54.0,31.0,-100.00,East,88,3.0,7.0,41,-99.99,,,-99.99,,2016-02-08 21:24:00,
2016-02-08 13:34:00,55.0,31.0,-100.00,ENE,59,3.0,7.0,41,-99.99,,,-99.99,,2016-02-08 21:34:00,
2016-02-08 13:44:00,54.0,31.0,-100.00,ENE,71,5.0,12.0,40,-99.99,,,-99.99,,2016-02-08 21:44:00,
2016-02-08 13:54:00,54.0,31.0,-100.00,NNE,28,7.0,12.0,41,-99.99,,,-99.99,,2016-02-08 21:54:00,
2016-02-08 14:05:00,54.0,32.0,-100.00,NNE,20,8.0,14.0,42,-99.99,,,-99.99,,2016-02-08 22:05:00,
2016-02-08 14:14:00,53.0,30.0,-100.00,NE,38,9.0,17.0,41,-99.99,,,-99.99,,2016-02-08 22:14:00,
2016-02-08 14:34:00,54.0,31.0,-100.00,NNE,14,8.0,13.0,41,-99.99,,,-99.99,,2016-02-08 22:34:00,
2016-02-08 15:13:00,54.0,31.0,-100.00,NE,56,7.0,12.0,42,-99.99,,,-99.99,,2016-02-08 23:13:00,
2016-02-08 15:34:00,55.0,30.0,-100.00,NE,44,8.0,14.0,40,-99.99,,,-99.99,,2016-02-08 23:34:00,
2016-02-08 15:43:00,55.0,30.0,-100.00,NE,44,8.0,14.0,40,-99.99,,,-99.99,,2016-02-08 23:43:00,
2016-02-08 15:54:00,54.0,31.0,-100.00,ENE,58,8.0,15.0,41,-99.99,,,-99.99,,2016-02-08 23:54:00,
2016-02-08 16:03:00,54.0,31.0,-100.00,ENE,58,7.0,13.0,41,-99.99,,,-99.99,,2016-02-09 00:03:00,
2016-02-08 16:17:00,54.0,31.0,-100.00,NE,56,8.0,15.0,41,-99.99,,,-99.99,,2016-02-09 00:17:00,
2016-02-08 16:36:00,54.0,31.0,-100.00,NE,54,8.0,15.0,41,-99.99,,,-99.99,,2016-02-09 00:36:00,
2016-02-08 16:43:00,54.0,31.0,-100.00,NE,54,8.0,15.0,41,-99.99,,,-99.99,,2016-02-09 00:43:00,
2016-02-08 16:54:00,52.0,31.0,-100.00,ENE,62,8.0,15.0,44,-99.99,,,-99.99,,2016-02-09 00:54:00,
2016-02-08 17:13:00,52.0,30.0,-100.00,ENE,58,7.0,15.0,43,-99.99,,,-99.99,,2016-02-09 01:13:00,
2016-02-08 17:34:00,51.0,30.0,-100.00,NE,52,7.0,13.0,46,-99.99,,,-99.99,,2016-02-09 01:34:00,
2016-02-08 17:44:00,50.0,30.0,-100.00,ENE,61,6.0,12.0,47,-99.99,,,-99.99,,2016-02-09 01:44:00,